This is the latest recevied weather packets stored in our database for station/object KD4EG. If no packets are shown the sender has not sent any weather packets the latest 10 day(s).
| Time | Temp. | Humidity | Pressure | Rain* | Wind** | Luminosity | Snow |
|---|---|---|---|---|---|---|---|
| 1777608228 | 8.89° C | 67% | 1017.7 hPa | 0 mm | - | 0 W/m² | - |
| 1777607925 | 9.44° C | 66% | 1017.8 hPa | 0 mm | - | 0 W/m² | - |
| 1777607620 | 10° C | 64% | 1017.7 hPa | 0 mm | - | 0 W/m² | - |
| 1777607318 | 10° C | 62% | 1017.8 hPa | 0 mm | - | 0 W/m² | - |
| 1777607013 | 10° C | 60% | 1017.7 hPa | 0 mm | - | 0 W/m² | - |
| 1777606709 | 10.56° C | 58% | 1017.8 hPa | 0 mm | - | 0 W/m² | - |
| 1777606405 | 10.56° C | 58% | 1017.7 hPa | 0 mm | - | 0 W/m² | - |
| 1777606100 | 10.56° C | 60% | 1017.6 hPa | 0 mm | - | 0 W/m² | - |
| 1777605796 | 10.56° C | 57% | 1017.4 hPa | 0 mm | - | 0 W/m² | - |
| 1777605495 | 10.56° C | 57% | 1017.5 hPa | 0 mm | - | 0 W/m² | - |
| 1777605192 | 10.56° C | 57% | 1017.5 hPa | 0 mm | - | 0 W/m² | - |
| 1777604888 | 11.11° C | 56% | 1017.6 hPa | 0 mm | - | 0 W/m² | - |
| 1777604583 | 11.11° C | 55% | 1017.6 hPa | 0 mm | - | 0 W/m² | - |
| 1777604280 | 11.11° C | 55% | 1017.5 hPa | 0 mm | - | 0 W/m² | - |
| 1777603975 | 11.11° C | 55% | 1017.3 hPa | 0 mm | - | 0 W/m² | - |
| 1777603672 | 11.11° C | 54% | 1017.4 hPa | 0 mm | - | 0 W/m² | - |
| 1777603369 | 11.67° C | 53% | 1017.4 hPa | 0 mm | - | 0 W/m² | - |
| 1777603065 | 11.67° C | 53% | 1017.5 hPa | 0 mm | - | 0 W/m² | - |
| 1777602759 | 11.67° C | 52% | 1017.3 hPa | 0 mm | - | 0 W/m² | - |
| 1777602455 | 11.67° C | 52% | 1017.4 hPa | 0 mm | - | 0 W/m² | - |
| 1777602151 | 11.67° C | 53% | 1017.1 hPa | 0 mm | - | 0 W/m² | - |
| 1777601846 | 11.67° C | 53% | 1017.1 hPa | 0 mm | - | 0 W/m² | - |
| 1777601542 | 11.67° C | 52% | 1016.9 hPa | 0 mm | - | 0 W/m² | - |
| 1777601237 | 12.22° C | 54% | 1016.9 hPa | 0 mm | - | 0 W/m² | - |
| 1777600935 | 12.22° C | 53% | 1016.9 hPa | 0 mm | - | 0 W/m² | - |
* Rain latest hour (hover to see other rain measurements)
** Current wind speed in m/s (hover to see current wind gust speed)